PST,Max TemperatureF,Mean TemperatureF,Min TemperatureF,Max Dew PointF,MeanDew PointF,Min DewpointF,Max Humidity, Mean Humidity, Min Humidity, Max Sea Level PressureIn, Mean Sea Level PressureIn, Min Sea Level PressureIn, Max VisibilityMiles, Mean VisibilityMiles, Min VisibilityMiles, Max Wind SpeedMPH, Mean Wind SpeedMPH, Max Gust SpeedMPH,PrecipitationIn, CloudCover, Events, WindDirDegrees
2013-2-1,67,47,27,32,28,22,75,50,24,30.30,30.25,30.19,10,10,10,8,2,12,0.00,0,,296
2013-2-2,65,52,39,45,33,29,71,49,26,30.35,30.27,30.22,10,10,10,12,3,,T,3,Rain,270
2013-2-3,68,54,39,45,34,24,89,57,24,30.21,30.14,30.05,10,10,10,20,4,23,0.00,1,,260
2013-2-4,71,51,30,29,25,20,66,41,15,30.17,30.10,30.04,10,10,10,12,3,13,0.00,0,,300
2013-2-5,73,52,30,42,29,21,80,48,16,30.08,30.01,29.93,10,9,4,32,11,39,0.00,0,,264
2013-2-6,66,50,34,39,22,5,82,47,11,30.11,30.05,29.99,10,10,10,28,11,37,0.00,0,,280
2013-2-7,65,43,21,36,23,9,65,42,19,30.14,30.04,29.92,10,10,10,29,11,36,0.00,2,,261
2013-2-8,49,41,33,35,30,25,89,66,42,29.93,29.88,29.83,10,9,1,24,15,30,0.17,4,Rain-Snow,251
2013-2-9,49,42,34,29,26,21,75,55,34,30.08,30.00,29.91,10,10,10,30,18,36,0.00,0,,271
2013-2-10,54,40,25,30,25,17,92,58,24,30.09,30.05,29.99,10,10,10,22,7,26,0.00,1,,268
2013-2-11,55,39,22,24,14,2,81,47,13,30.30,30.19,30.09,10,10,10,16,6,21,0.00,0,,334
2013-2-12,58,39,20,20,12,5,73,43,13,30.43,30.34,30.29,10,10,10,9,3,10,0.00,0,,295
2013-2-13,65,44,22,27,18,12,77,45,13,30.38,30.28,30.19,10,10,10,10,3,12,0.00,0,,277
2013-2-14,70,48,26,23,19,17,69,42,14,30.31,30.25,30.17,10,10,10,24,6,29,0.00,0,,24
2013-2-15,70,49,28,22,17,13,69,40,11,30.38,30.32,30.27,10,10,10,24,8,32,0.00,0,,30
2013-2-16,69,49,29,18,15,12,51,31,11,30.34,30.20,30.04,10,10,10,12,3,18,0.00,0,,314
2013-2-17,69,47,25,33,21,13,58,37,16,30.03,29.97,29.91,10,10,10,29,13,33,0.00,0,,267
2013-2-18,66,47,28,37,26,18,71,45,19,30.06,29.97,29.91,,,,23,9,28,0.00,0,,254
2013-2-19,52,44,35,36,33,28,76,63,50,29.91,29.80,29.67,10,10,4,29,18,35,0.03,4,Rain,245
2013-2-20,49,41,32,27,24,22,78,57,36,29.99,29.84,29.68,10,10,10,29,22,39,T,1,,276
2013-2-21,55,44,32,28,23,13,64,42,19,30.14,30.04,29.97,10,10,10,30,11,38,0.00,0,,299
2013-2-22,61,42,22,30,22,15,81,49,17,30.25,30.18,30.14,10,10,10,22,5,26,0.00,0,,264
2013-2-23,61,51,40,32,27,20,55,42,29,30.14,30.01,29.87,10,7,0,46,22,53,0.00,2,,280
2013-2-24,57,42,27,17,4,-4,60,35,9,30.28,30.20,30.12,10,10,10,28,10,36,0.00,0,,70
2013-2-25,68,43,18,23,11,1,49,30,10,30.30,30.19,30.07,10,10,10,31,11,37,0.00,0,,278
2013-2-26,64,49,34,26,15,4,59,35,11,30.23,30.12,30.06,10,10,10,25,10,30,0.00,0,,19
2013-2-27,63,44,24,13,7,4,47,29,10,30.39,30.34,30.25,10,10,10,17,6,23,0.00,0,,22
2013-2-28,69,46,22,25,9,2,50,29,7,30.46,30.41,30.36,10,10,10,10,4,15,0.00,0,,346